Location: Aressy
(43.2833°N, 0.3167°W)
Time: 21:13:15
(UTC+00:00)

USA 229 DEB - Pass Details

Date: 28 January 2021
Orbit: 965 x 1247 km, 63.4° (Epoch: 03 March)

Event Time Altitude Azimuth Distance (km) Brightness Sun altitude
Rises 17:23:22 0° 325° (NW) 3,940 6.9 -3.4°
Reaches altitude 10° 17:26:06 10° 330° (NNW) 3,020 6.2 -3.9°
Maximum altitude 17:33:08 50° 45° (NE) 1,473 4.1 -5.1°
Drops below altitude 10° 17:40:32 10° 120° (ESE) 3,178 5.8 -6.3°
Sets 17:43:28 0° 126° (SE) 4,161 6.4 -6.8°
